DW8626 Madrid ES current weather conditions

sailwx.info

Wind from 016 at 6 knots gusting 13

Air temperature 21.7° C
Dewpoint 4.7° C

Last reported at 2016-May-31 17:47 UTC.
Time now 2016-May-31 18:05 UTC

Location: N 40°29' W 003°43'.
View on Google Maps.

See reports from other nearby stations

  
Tides and Currents Weather Stations Pressure Air Temp Water Temp Dewpoint Dewpoint Depression Visibility Wind Speed Wind Dir Waves Ship Positions
date/time (UTC)wind fromknots sea level pressurealtimeterstation pressurevisibilityair tempwater tempwave heightnotes
2016-May-31 17:47 016 6 gusting 13 21.7
2016-May-31 17:32 044 7 gusting 10 22.2
2016-May-31 17:17 019 4 gusting 9 22.2
2016-May-31 17:02 252 0 gusting 9 22.2
2016-May-31 16:47 020 6 gusting 8 22.2
2016-May-31 16:32 014 6 gusting 11 22.2
2016-May-31 16:17 323 3 gusting 6 21.7
2016-May-31 16:02 018 5 gusting 9 22.2
2016-May-31 15:47 349 1 gusting 7 21.7
2016-May-31 15:32 284 2 gusting 10 21.7
2016-May-31 15:17 340 1 gusting 6 22.2
2016-May-31 15:02 041 3 gusting 8 21.7
2016-May-31 14:47 300 3 gusting 9 21.7
2016-May-31 14:32 005 9 gusting 12 21.7
2016-May-31 14:17 035 4 gusting 9 21.7
2016-May-31 14:02 276 0 gusting 13 21.1
2016-May-31 13:47 348 1 gusting 8 21.1
2016-May-31 13:32 143 2 gusting 10 20.6
2016-May-31 13:17 020 0 gusting 9 20.6
2016-May-31 13:02 350 6 gusting 8 20.6
2016-May-31 12:47 342 3 gusting 8 20.6
2016-May-31 12:32 338 0 gusting 6 20.6
2016-May-31 12:17 043 2 gusting 11 20.0
2016-May-31 12:02 048 4 gusting 10 19.4
2016-May-31 11:47 004 4 gusting 9 19.4
2016-May-31 11:32 018 19.4
2016-May-31 11:17 342 18.9
2016-May-31 11:02 025 4 gusting 14 19.4
2016-May-31 10:47 355 1 gusting 7 19.4
2016-May-31 10:32 132 2 gusting 9 18.9
2016-May-31 10:17 092 18.9
2016-May-31 10:02 291 1 gusting 6 18.3
2016-May-31 09:47 115 3 gusting 6 18.3
2016-May-31 09:32 039 0 gusting 6 17.2
2016-May-31 09:17 032 7 gusting 9 16.1
2016-May-31 09:02 349 4 gusting 9 16.1
2016-May-31 08:47 036 3 gusting 7 16.1
2016-May-31 08:32 019 4 gusting 6 16.1
2016-May-31 08:17 342 4 gusting 6 15.6
2016-May-31 08:02 026 4 gusting 6 15.0
2016-May-31 07:47 301 14.4
2016-May-31 07:32 306 13.3
2016-May-31 07:17 013 13.9
2016-May-31 07:02 004 1 gusting 5 13.3
2016-May-31 06:47 042 2 gusting 12 12.8
2016-May-31 06:32 065 4 gusting 7 12.8
2016-May-31 06:17 113 0 gusting 8 12.8
2016-May-31 06:02 056 1 gusting 7 12.2
2016-May-31 05:47 008 12.2
2016-May-31 05:32 360 5 gusting 10 11.7
2016-May-31 05:17 028 4 gusting 7 11.1
2016-May-31 05:02 046 4 gusting 6 11.1
2016-May-31 04:47 012 3 gusting 4 10.6
2016-May-31 04:32 320 11.1
2016-May-31 04:17 083 11.7
2016-May-31 04:02 035 11.7
2016-May-31 03:47 072 11.7
2016-May-31 03:32 033 12.2
2016-May-31 03:17 101 12.2
2016-May-31 03:02 080 1 gusting 5 12.2
2016-May-31 02:47 114 12.2
2016-May-31 02:32 338 12.2
2016-May-31 02:17 021 12.2
2016-May-31 02:02 004 12.2
2016-May-31 01:47 004 12.8
2016-May-31 01:32 113 0 gusting 3 13.3
2016-May-31 01:17 129 2 gusting 8 13.9
2016-May-31 01:02 060 13.9
2016-May-31 00:47 145 1 gusting 6 13.9
2016-May-31 00:32 064 0 gusting 6 13.9
2016-May-31 00:17 032 1 gusting 5 14.4
2016-May-31 00:02 047 2 gusting 6 14.4
2016-May-30 23:47 074 2 gusting 6 13.9
2016-May-30 23:32 063 3 gusting 6 14.4
2016-May-30 23:17 056 4 gusting 8 14.4
2016-May-30 23:02 046 3 gusting 6 15.0
2016-May-30 22:47 041 4 gusting 5 15.0
2016-May-30 22:32 044 3 gusting 4 15.0
2016-May-30 22:17 356 2 gusting 2 15.6
2016-May-30 22:02 028 2 gusting 2 15.6
2016-May-30 21:47 023 15.6
2016-May-30 21:32 360 15.6
2016-May-30 21:17 355 1 gusting 2 15.6
2016-May-30 21:02 355 16.1
2016-May-30 20:47 015 1 gusting 3 16.1
2016-May-30 20:32 047 2 gusting 5 16.7
2016-May-30 20:17 032 1 gusting 3 16.7
2016-May-30 20:02 350 0 gusting 3 17.2
2016-May-30 19:47 001 17.8
2016-May-30 19:32 020 5 gusting 7 18.3
2016-May-30 19:17 011 5 gusting 8 18.9
2016-May-30 19:02 301 4 gusting 6 19.4
2016-May-30 18:47 342 1 gusting 8 19.4
2016-May-30 18:32 335 3 gusting 8 20.0
2016-May-30 18:17 290 2 gusting 9 20.0
2016-May-30 18:02 281 3 gusting 8 20.0
2016-May-30 17:47 286 3 gusting 9 20.0
2016-May-30 17:32 195 3 gusting 8 20.0
2016-May-30 17:17 252 2 gusting 13 20.0
2016-May-30 17:02 281 6 gusting 11 19.4
2016-May-30 16:47 201 2 gusting 10 19.4
2016-May-30 16:32 300 6 gusting 11 20.0
2016-May-30 16:17 308 7 gusting 13 19.4
2016-May-30 16:02 271 5 gusting 9 19.4
2016-May-30 15:47 252 6 gusting 12 20.0
2016-May-30 15:32 297 3 gusting 9 19.4
2016-May-30 15:17 332 5 gusting 10 19.4
2016-May-30 15:02 271 8 gusting 13 18.9
2016-May-30 14:47 281 3 gusting 10 18.9
2016-May-30 14:32 285 4 gusting 10 18.9
2016-May-30 14:17 262 3 gusting 9 18.9
2016-May-30 14:02 284 6 gusting 13 18.3
2016-May-30 13:47 271 3 gusting 13 18.3
2016-May-30 13:32 220 6 gusting 10 18.9
2016-May-30 13:17 155 5 gusting 9 18.3
2016-May-30 13:02 281 3 gusting 7 18.3
2016-May-30 12:47 235 4 gusting 10 17.8
2016-May-30 12:32 242 4 gusting 14 17.8
2016-May-30 12:17 359 2 gusting 9 18.3
2016-May-30 12:02 278 3 gusting 18 17.8
2016-May-30 11:47 231 5 gusting 8 17.8
2016-May-30 11:32 290 6 gusting 12 17.2
2016-May-30 11:17 271 3 gusting 10 17.2
2016-May-30 11:02 317 5 gusting 8 16.7
2016-May-30 10:47 302 3 gusting 10 17.2
2016-May-30 10:32 245 0 gusting 4 16.7
2016-May-30 10:17 250 0 gusting 4 16.1
2016-May-30 10:02 263 3 gusting 6 16.1
2016-May-30 09:47 252 16.7
2016-May-30 09:32 333 0 gusting 4 17.2
2016-May-30 09:17 114 16.7
2016-May-30 09:02 319 0 gusting 3 16.1
2016-May-30 08:47 312 16.1
2016-May-30 08:32 297 15.0
2016-May-30 08:17 342 15.0
2016-May-30 08:02 229 15.0
2016-May-30 07:47 141 13.3
2016-May-30 07:32 288 12.2
2016-May-30 07:17 323 12.2
2016-May-30 07:02 308 11.7
2016-May-30 06:47 303 11.7
2016-May-30 06:32 204 11.1
2016-May-30 06:17 170 11.1
2016-May-30 06:02 208 10.6
2016-May-30 05:47 029 10.6
2016-May-30 05:32 131 10.0
2016-May-30 05:17 142 10.0
2016-May-30 05:02 154 10.6
2016-May-30 04:47 155 10.6
2016-May-30 04:32 304 11.1
2016-May-30 04:17 214 11.1
2016-May-30 04:02 264 11.1
2016-May-30 03:47 203 11.1
2016-May-30 03:32 233 11.1
2016-May-30 03:17 226 1 gusting 4 11.7
2016-May-30 03:02 266 11.7
2016-May-30 02:47 236 1 gusting 5 12.2
2016-May-30 02:32 276 11.7
2016-May-30 02:17 273 11.7
2016-May-30 02:02 262 11.7
2016-May-30 01:47 272 12.2
2016-May-30 01:32 349 12.2
2016-May-30 01:17 278 12.2
2016-May-30 01:02 253 11.7
2016-May-30 00:47 163 11.7
2016-May-30 00:32 264 12.2
2016-May-30 00:17 301 12.2
2016-May-30 00:02 254 0 gusting 2 12.2
2016-May-29 23:47 260 12.2
2016-May-29 23:32 262 0 gusting 4 12.8
2016-May-29 23:17 203 0 gusting 3 12.8
2016-May-29 23:02 281 12.8
2016-May-29 22:47 236 3 gusting 6 12.8
2016-May-29 22:32 194 0 gusting 2 12.8
2016-May-29 20:17 311 1 gusting 3 12.8
2016-May-29 20:02 305 0 gusting 4 12.8
2016-May-29 19:47 210 0 gusting 3 13.3
2016-May-29 19:32 259 0 gusting 5 12.8
2016-May-29 19:17 243 1 gusting 7 12.8
2016-May-29 19:02 277 4 gusting 7 13.3
2016-May-29 18:47 305 2 gusting 11 13.9
2016-May-29 18:32 281 0 gusting 7 14.4
2016-May-29 18:17 072 2 gusting 9 15.0
2016-May-29 18:02 264 3 gusting 9 15.6